Overview Statistics Trail Chart Weather Telemetry Raw packets
 

This is the latest recevied weather packets stored in our database for station/object KI5NXU. If no packets are shown the sender has not sent any weather packets the latest 10 day(s).

<< 92 93 94 95 96 97 98 >>
Time Temp. Humidity Pressure Rain* Wind** Luminosity Snow
1787703095 38.33° C 28% 1012.9 hPa 0 mm - 33 W/m² -
1787702791 38.33° C 28% 1012.7 hPa 0 mm - 33 W/m² -
1787702486 38.33° C 27% 1012.6 hPa 0 mm - 36 W/m² -
1787702186 38.89° C 27% 1012.8 hPa 0 mm - 47 W/m² -
1787701881 39.44° C 26% 1012.6 hPa 0 mm - 62 W/m² -
1787701577 40° C 26% 1012.6 hPa 0 mm - 125 W/m² -
1787701273 39.44° C 27% 1012.6 hPa 0 mm - 137 W/m² -
1787700968 39.44° C 27% 1012.4 hPa 0 mm - 62 W/m² -
1787700664 39.44° C 26% 1012.5 hPa 0 mm - 165 W/m² -
1787700360 39.44° C 26% 1012.4 hPa 0 mm - 144 W/m² -
1787700055 40.56° C 27% 1012.4 hPa 0 mm - 104 W/m² -
1787699751 40° C 27% 1012.6 hPa 0 mm - 261 W/m² -
1787699446 39.44° C 29% 1012.4 hPa 0 mm - 262 W/m² -
1787699142 39.44° C 28% 1012.5 hPa 0 mm - 124 W/m² -
1787698837 39.44° C 28% 1012.3 hPa 0 mm - 145 W/m² -
1787698533 40° C 29% 1012.5 hPa 0 mm - 125 W/m² -
1787698229 40° C 28% 1012.6 hPa 0 mm - 140 W/m² -
1787697925 40.56° C 28% 1012.5 hPa 0 mm - 351 W/m² -
1787697624 39.44° C 30% 1012.3 hPa 0 mm - 176 W/m² -
1787697320 39.44° C 29% 1012.5 hPa 0 mm - 186 W/m² -
1787697016 40° C 29% 1012.4 hPa 0 mm - 161 W/m² -
1787696711 40° C 29% 1012.5 hPa 0 mm - 169 W/m² -
1787696407 40.56° C 27% 1012.3 hPa 0 mm - 323 W/m² -
1787696102 39.44° C 29% 1012.1 hPa 0 mm - 240 W/m² -
1787695801 39.44° C 29% 1012.2 hPa 0 mm - 170 W/m² -

* Rain latest hour (hover to see other rain measurements)
** Current wind speed in m/s (hover to see current wind gust speed)